Weather History for Volkel, Netherlands

Change the Weather History Date:

Monday, February 18, 2013

  Actual Average Record
Temperature  
Mean Temperature 33 °F -  
Max Temperature 42 °F 47 °F 53 °F (1997)
Min Temperature 24 °F 34 °F 17 °F (2003)
Degree Days  
Heating Degree Days 32    
Moisture  
Dew Point 30 °F    
Average Humidity 88    
Maximum Humidity 100    
Minimum Humidity 57    
Precipitation  
Precipitation 0.00 in - - ()
Sea Level Pressure  
Sea Level Pressure 30.16 in    
Wind  
Wind Speed 3 mph ()    
Max Wind Speed 8 mph    
Max Gust Speed -    
Visibility 4.1 miles    
Events Fog    
Averages and records for this station are not official NWS values.
T = Trace of Precipitation, MM = Missing Value Source: Averaged Metar Reports

Daily Weather History Graph

Daily Weather History Graph

Search for Another Location

Airport:

Trip Planner

Search our weather history database for the weather conditions in past years. The results will help you decide how hot, cold, wet, or windy it might be!

Date:

Astronomy

Feb. 18, 2013 Rise Set
Actual Time 7:45 AM CET 5:57 PM CET
Civil Twilight 7:10 AM CET 6:32 PM CET
Nautical Twilight 6:31 AM CET 7:11 PM CET
Astronomical Twilight 5:53 AM CET 7:49 PM CET
Moon 11:11 AM CET (2/18) 2:30 AM CET (2/18)
Length of Visible Light 11h 21m
Length of Day
10h 12m
First Quarter, 56% of the Moon is Illuminated
Feb 18
First Quarter
Feb 25
Full
Mar 4
Last Quarter
Mar 11
New
Mar 19
First Quarter

Hourly Weather History & Observations

Time (CET) Temp. Windchill Dew Point Humidity Pressure Visibility Wind Dir Wind Speed Gust Speed Precip Events Conditions
12:25 AM 32.0 °F 27.5 °F 30.2 °F 93% 30.18 in 1.9 mi East 4.6 mph - N/A   Overcast
12:55 AM 32.0 °F 28.7 °F 32.0 °F 100% 30.18 in - East 3.5 mph - N/A   Scattered Clouds
1:25 AM 32.0 °F 28.7 °F 32.0 °F 100% 30.18 in 1.6 mi ENE 3.5 mph - N/A   Mostly Cloudy
1:55 AM 30.2 °F 25.4 °F 30.2 °F 100% 30.18 in 1.1 mi ENE 4.6 mph - N/A   Mostly Cloudy
2:25 AM 30.2 °F 26.7 °F 30.2 °F 100% 30.18 in 1.2 mi ENE 3.5 mph - N/A   Overcast
2:55 AM 30.2 °F 26.7 °F 30.2 °F 100% 30.18 in 1.3 mi ENE 3.5 mph - N/A   Overcast
3:05 AM 30.2 °F 26.7 °F 30.2 °F 100% 30.18 in 0.9 mi ENE 3.5 mph - N/A   Mostly Cloudy
3:13 AM 30.2 °F 26.7 °F 30.2 °F 100% 30.18 in 0.4 mi ENE 3.5 mph - N/A Fog Light Freezing Fog
3:25 AM 30.2 °F 26.7 °F 30.2 °F 100% 30.18 in 1.4 mi East 3.5 mph - N/A   Partly Cloudy
3:29 AM 30.2 °F 26.7 °F 30.2 °F 100% 30.18 in 0.4 mi East 3.5 mph - N/A Fog Light Freezing Fog
3:55 AM 28.4 °F - 28.4 °F 100% 30.18 in 0.2 mi East 2.3 mph - N/A Fog Light Freezing Fog
4:10 AM 28.4 °F - 28.4 °F 100% 30.18 in 0.5 mi ENE 2.3 mph - N/A Fog Light Freezing Fog
4:11 AM 28.4 °F - 28.4 °F 100% 30.18 in - ENE 2.3 mph - N/A Fog Light Freezing Fog
4:25 AM 28.4 °F - 28.4 °F 100% 30.18 in 0.2 mi ENE 2.3 mph - N/A Fog Light Freezing Fog
4:55 AM 26.6 °F 22.6 °F 26.6 °F 100% 30.18 in 0.1 mi ENE 3.5 mph - N/A Fog Light Freezing Fog
5:25 AM 28.4 °F - 28.4 °F 100% 30.18 in 0.2 mi East 2.3 mph - N/A Fog Light Freezing Fog
5:55 AM 28.4 °F - 28.4 °F 100% 30.18 in 0.2 mi East 2.3 mph - N/A Fog Light Freezing Fog
6:25 AM 26.6 °F - 26.6 °F 100% 30.18 in 0.1 mi ENE 2.3 mph - N/A Fog Light Freezing Fog
6:55 AM 24.8 °F - 24.8 °F 100% 30.18 in 0.1 mi ENE 2.3 mph - N/A Fog Light Freezing Fog
7:25 AM 26.6 °F - 26.6 °F 100% 30.18 in 0.2 mi East 2.3 mph - N/A Fog Light Freezing Fog
7:30 AM 28.4 °F 24.6 °F 28.4 °F 100% 30.18 in 0.5 mi East 3.5 mph - N/A Fog Light Freezing Fog
7:55 AM 28.4 °F - 28.4 °F 100% 30.18 in 0.6 mi East 2.3 mph - N/A   Overcast
8:03 AM 28.4 °F - 28.4 °F 100% 30.18 in 1.0 mi ESE 2.3 mph - N/A   Overcast
8:19 AM 28.4 °F 24.6 °F 28.4 °F 100% 30.18 in 1.7 mi East 3.5 mph - N/A   Overcast
8:25 AM 28.4 °F 24.6 °F 28.4 °F 100% 30.18 in 1.9 mi East 3.5 mph - N/A   Mostly Cloudy
8:37 AM 30.2 °F - 30.2 °F 100% 30.18 in - East 2.3 mph - N/A   Scattered Clouds
8:41 AM 30.2 °F - 30.2 °F 100% 30.18 in - East 2.3 mph - N/A   Mostly Cloudy
8:46 AM 30.2 °F 26.7 °F 30.2 °F 100% 30.18 in - East 3.5 mph - N/A   Mostly Cloudy
8:55 AM 28.4 °F 24.6 °F 28.4 °F 100% 30.18 in - East 3.5 mph - N/A   Mostly Cloudy
9:04 AM 28.4 °F 24.6 °F 28.4 °F 100% 30.18 in 3.1 mi East 3.5 mph - N/A   Mostly Cloudy
9:17 AM 30.2 °F - 30.2 °F 100% 30.18 in 3.7 mi ESE 2.3 mph - N/A   Overcast
9:25 AM 32.0 °F 28.7 °F 32.0 °F 100% 30.18 in 4.3 mi SE 3.5 mph - N/A   Mostly Cloudy
9:29 AM 32.0 °F 27.5 °F 32.0 °F 100% 30.18 in 5.0 mi SSE 4.6 mph - N/A   Overcast
9:39 AM 32.0 °F 27.5 °F 32.0 °F 100% 30.18 in 6.2 mi SE 4.6 mph - N/A   Overcast
9:55 AM 33.8 °F 28.6 °F 32.0 °F 93% 30.18 in 6.2 mi SE 5.8 mph - N/A   Overcast
10:25 AM 33.8 °F 30.8 °F 32.0 °F 93% 30.18 in 6.2 mi SE 3.5 mph - N/A   Mostly Cloudy
10:55 AM 35.6 °F 31.7 °F 32.0 °F 87% 30.18 in 6.2 mi SSE 4.6 mph - N/A   Mostly Cloudy
11:25 AM 39.2 °F 33.6 °F 32.0 °F 75% 30.18 in 6.2 mi SSE 8.1 mph - N/A   Partly Cloudy
11:55 AM 39.2 °F 34.2 °F 30.2 °F 70% 30.18 in 6.2 mi South 6.9 mph - N/A   Unknown
12:25 PM 41.0 °F 37.1 °F 32.0 °F 70% 30.18 in 6.2 mi South 5.8 mph - N/A   Partly Cloudy
12:55 PM 42.8 °F 38.6 °F 30.2 °F 61% 30.18 in 6.2 mi SE 6.9 mph - N/A   Unknown
1:25 PM 42.8 °F 39.3 °F 30.2 °F 61% 30.18 in 6.2 mi SE 5.8 mph - N/A   Unknown
1:55 PM 42.8 °F 40.1 °F 30.2 °F 61% 30.18 in 6.2 mi East 4.6 mph - N/A   Partly Cloudy
2:25 PM 42.8 °F 40.1 °F 28.4 °F 57% 30.15 in 6.2 mi ESE 4.6 mph - N/A   Unknown
2:55 PM 42.8 °F 39.3 °F 30.2 °F 61% 30.15 in 6.2 mi East 5.8 mph - N/A   Mostly Cloudy
3:21 PM 42.8 °F 40.1 °F 30.2 °F 61% 30.15 in 6.2 mi East 4.6 mph - N/A   Unknown
3:25 PM 42.8 °F 40.1 °F 30.2 °F 61% 30.15 in 6.2 mi East 4.6 mph - N/A   Unknown
3:39 PM 42.8 °F 40.1 °F 28.4 °F 57% 30.15 in 6.2 mi East 4.6 mph - N/A   Unknown
3:55 PM 42.8 °F 41.1 °F 30.2 °F 61% 30.15 in 6.2 mi ESE 3.5 mph - N/A   Unknown
4:25 PM 42.8 °F 41.1 °F 30.2 °F 61% 30.15 in 6.2 mi ESE 3.5 mph - N/A   Unknown
4:55 PM 41.0 °F 38.0 °F 30.2 °F 65% 30.15 in 6.2 mi East 4.6 mph - N/A   Partly Cloudy
4:57 PM 41.0 °F 38.0 °F 30.2 °F 65% 30.15 in 6.2 mi East 4.6 mph - N/A   Partly Cloudy
5:25 PM 39.2 °F - 30.2 °F 70% 30.15 in 6.2 mi ESE 2.3 mph - N/A   Unknown
5:55 PM 37.4 °F - 30.2 °F 75% 30.15 in 6.2 mi East 1.2 mph - N/A   Unknown
6:10 PM 37.4 °F - 30.2 °F 75% 30.15 in 6.2 mi ESE 2.3 mph - N/A   Partly Cloudy
6:25 PM 37.4 °F - 30.2 °F 75% 30.15 in 6.2 mi ESE 2.3 mph - N/A   Mostly Cloudy
6:55 PM 35.6 °F - 30.2 °F 81% 30.15 in 6.2 mi SE 2.3 mph - N/A   Unknown
7:08 PM 35.6 °F - 30.2 °F 81% 30.15 in 6.2 mi SSE 2.3 mph - N/A   Scattered Clouds
7:25 PM 33.8 °F - 30.2 °F 87% 30.15 in 6.2 mi SE 2.3 mph - N/A   Unknown
7:55 PM 33.8 °F - 30.2 °F 87% 30.12 in 6.2 mi South 1.2 mph - N/A   Unknown
8:25 PM 33.8 °F - 30.2 °F 87% 30.12 in 6.2 mi South 1.2 mph - N/A   Partly Cloudy
8:55 PM 32.0 °F - 30.2 °F 93% 30.12 in 6.2 mi WSW 1.2 mph - N/A   Partly Cloudy
9:01 PM 32.0 °F - 30.2 °F 93% 30.12 in 6.2 mi WSW 2.3 mph - N/A   Partly Cloudy
9:25 PM 33.8 °F - 30.2 °F 87% 30.12 in 6.2 mi WSW 1.2 mph - N/A   Partly Cloudy
9:55 PM 33.8 °F - 30.2 °F 87% 30.12 in 6.2 mi WSW 2.3 mph - N/A   Partly Cloudy
10:25 PM 32.0 °F 28.7 °F 28.4 °F 87% 30.12 in 5.0 mi WSW 3.5 mph - N/A   Mist
10:37 PM 32.0 °F 28.7 °F 30.2 °F 93% 30.12 in 5.0 mi WSW 3.5 mph - N/A   Scattered Clouds
10:55 PM 32.0 °F 28.7 °F 30.2 °F 93% 30.12 in 5.0 mi SW 3.5 mph - N/A   Scattered Clouds
11:25 PM 32.0 °F 28.7 °F 30.2 °F 93% 30.12 in 5.0 mi WSW 3.5 mph - N/A   Partly Cloudy
11:30 PM 32.0 °F 28.7 °F 30.2 °F 93% 30.12 in 4.3 mi SW 3.5 mph - N/A   Mist
11:35 PM 32.0 °F 28.7 °F 30.2 °F 93% 30.12 in 5.0 mi SW 3.5 mph - N/A   Partly Cloudy
11:36 PM 32.0 °F 28.7 °F 30.2 °F 93% 30.12 in 4.3 mi SW 3.5 mph - N/A   Partly Cloudy
11:45 PM 32.0 °F 28.7 °F 30.2 °F 93% 30.12 in 5.0 mi WSW 3.5 mph - N/A   Mist
11:49 PM 32.0 °F 28.7 °F 28.4 °F 87% 30.12 in 4.3 mi WSW 3.5 mph - N/A   Partly Cloudy
11:55 PM 32.0 °F - 28.4 °F 87% 30.12 in 5.0 mi SW 2.3 mph - N/A   Mostly Cloudy
11:59 PM 32.0 °F - 30.2 °F 93% 30.12 in 4.3 mi SW 2.3 mph - N/A   Mostly Cloudy